This is the latest recevied weather packets stored in our database for station/object LA4M-10. If no packets are shown the sender has not sent any weather packets the latest 10 day(s).
| Time | Temp. | Humidity | Pressure | Rain* | Wind** | Luminosity | Snow |
|---|---|---|---|---|---|---|---|
| 1787884636 | 15° C | 100% | 952.6 hPa | - | - | - | - |
| 1787883735 | 15° C | 100% | 952.7 hPa | - | - | - | - |
| 1787882835 | 15° C | 100% | 952.9 hPa | - | - | - | - |
| 1787881035 | 15° C | 100% | 953.2 hPa | - | - | - | - |
| 1787880135 | 15° C | 100% | 953.1 hPa | - | - | - | - |
| 1787879235 | 15° C | 100% | 953.5 hPa | - | - | - | - |
| 1787878335 | 14.44° C | 100% | 953.4 hPa | - | - | - | - |
| 1787877435 | 15° C | 100% | 953.4 hPa | - | - | - | - |
| 1787876535 | 15° C | 100% | 953.7 hPa | - | - | - | - |
| 1787875634 | 15° C | 100% | 953.9 hPa | - | - | - | - |
| 1787874734 | 15° C | 100% | 953.9 hPa | - | - | - | - |
| 1787873834 | 15° C | 100% | 954 hPa | - | - | - | - |
| 1787872934 | 15.56° C | 100% | 954.2 hPa | - | - | - | - |
| 1787872034 | 15.56° C | 100% | 954.4 hPa | - | - | - | - |
| 1787871134 | 15.56° C | 100% | 954.6 hPa | - | - | - | - |
| 1787870234 | 15.56° C | 100% | 954.7 hPa | - | - | - | - |
| 1787869334 | 15.56° C | 100% | 954.8 hPa | - | - | - | - |
| 1787868434 | 15.56° C | 100% | 954.8 hPa | - | - | - | - |
| 1787867533 | 15.56° C | 100% | 954.8 hPa | - | - | - | - |
| 1787866633 | 14.44° C | 100% | 955.1 hPa | - | - | - | - |
| 1787865733 | 15° C | 100% | 955.1 hPa | - | - | - | - |
| 1787864833 | 14.44° C | 100% | 955 hPa | - | - | - | - |
| 1787863933 | 14.44° C | 100% | 955.1 hPa | - | - | - | - |
| 1787863033 | 13.89° C | 100% | 955.1 hPa | - | - | - | - |
| 1787862133 | 14.44° C | 100% | 955.2 hPa | - | - | - | - |
* Rain since midnight (hover to see other rain measurements)
** Current wind speed in m/s (hover to see current wind gust speed)